This is the latest recevied weather packets stored in our database for station/object KB9YVI-11. If no packets are shown the sender has not sent any weather packets the latest 1 day(s).
| Time | Temp. | Humidity | Pressure | Rain* | Wind** | Luminosity | Snow |
|---|---|---|---|---|---|---|---|
| 1778092523 | 13.89° C | 89% | 0 hPa | 0 mm | - | - | - |
| 1778091923 | 13.89° C | 88% | 0 hPa | 0 mm | - | - | - |
| 1778091623 | 13.89° C | 86% | 0 hPa | 0 mm | - | - | - |
| 1778091323 | 13.89° C | 90% | 0 hPa | 0 mm | - | - | - |
| 1778091023 | 13.89° C | 90% | 0 hPa | 0 mm | - | - | - |
| 1778090723 | 13.89° C | 87% | 0 hPa | 0 mm | - | - | - |
| 1778090423 | 13.89° C | 88% | 0 hPa | 0 mm | - | - | - |
| 1778090123 | 13.33° C | 88% | 0 hPa | 0 mm | - | - | - |
| 1778089523 | 13.89° C | 88% | 0 hPa | 0 mm | - | - | - |
| 1778089223 | 13.89° C | 84% | 0 hPa | 0 mm | - | - | - |
| 1778088923 | 13.89° C | 86% | 0 hPa | 0 mm | - | - | - |
| 1778088323 | 13.89° C | 87% | 0 hPa | 0 mm | - | - | - |
| 1778087723 | 13.89° C | 90% | 0 hPa | 0 mm | - | - | - |
| 1778087423 | 13.33° C | 91% | 0 hPa | 0 mm | - | - | - |
| 1778086523 | 13.33° C | 93% | 0 hPa | 0 mm | - | - | - |
| 1778085923 | 13.33° C | 95% | 0 hPa | 0 mm | - | - | - |
| 1778081422 | 11.11° C | 100% | 0 hPa | 0 mm | - | - | - |
| 1778077822 | 9.44° C | 100% | 0 hPa | 0 mm | - | - | - |
| 1778071524 | 8.33° C | 100% | 0 hPa | 0 mm | - | - | - |
| 1778071224 | 8.33° C | 100% | 0 hPa | 0 mm | - | - | - |
| 1778070924 | 8.33° C | 100% | 0 hPa | 0 mm | - | - | - |
| 1778069124 | 7.78° C | 100% | 0 hPa | 0 mm | - | - | - |
| 1778067924 | 7.78° C | 100% | 0 hPa | 0 mm | - | - | - |
| 1778067624 | 7.78° C | 100% | 0 hPa | 0 mm | - | - | - |
| 1778067023 | 7.78° C | 100% | 0 hPa | 0 mm | - | - | - |
* Rain latest hour (hover to see other rain measurements)
** Current wind speed in m/s (hover to see current wind gust speed)